User: anonymous   Login
Location: Arroyo Retuerta
(40.5469°N, 4.3534°W)
Time: 13:25:40
(UTC+00:00)
Language:

NOSS 2-2 (E) - Orbit

View from above orbital plane
View from above orbital plane
View from above satellite
View from above satellite

Ground track
Ground track

The orbit data is extracted from the following two-line orbital elements,

1 21809U 91076E   20183.78102061 0.00000100  00000-0  19915-4 0    05
2 21809  63.3207 103.6074 0834655  36.3077 323.6495 13.41565865    07
Epoch (UTC): 01 July 2020 18:44:40
Eccentricity: 0.0834655
inclination: 63.3207°
perigee height: 479 km
apogee height: 1728 km
right ascension of ascending node: 103.6074°
argument of perigee: 36.3077°
revolutions per day: 13.41565865
mean anomaly at epoch: 323.6495°
orbit number at epoch: 0

The dashed part of the orbit path shows where the satellite is in the earth's shadow,  

DLR